sat.trackr.live / text

‹ back to catalog

AEROCUBE 16A

NORAD 59290 · 2024-053C

PAYLOAD ACTIVE UNKNOWN

§ Identity

Operator
Country
US
Launch date
2024-03-21
Launch site
WLPIS
Launch vehicle
Mass (kg)
RCS (m²)

External: N2YO · Heavens-Above · Gunter

§ Orbital elements

Epoch: 2026-05-24T22:14:24.573120Z

Period
93.32 min
Inclination
49.9891°
Eccentricity
0.0002039
Mean motion
15.43046339 rev/d
Perigee alt
435.7 km
Apogee alt
438.5 km
Semi-major
6,815.3 km
B*
3.3179e-4
RAAN
82.9469°
Arg perigee
238.8287°
Mean anomaly
121.2476°
Rev number
11,751

§ Raw data

AEROCUBE 16A1 59290U 24053C   26144.92667330  .00014528  00000+0  33179-3 0  99972 59290  49.9891  82.9469 0002039 238.8287 121.2476 15.43046339117513

JSON: /api/v1/satellites/59290 · /tle

For live sub-satellite position, see the globe view (requires WebGL).

§ Visibility from observer

Set your observer location to see the next 7 days of passes ≥ 10°. The values pass through the URL so the page stays shareable.

No JS? Fill the form by hand. The geolocation button needs JavaScript.